Estación de Galvarino

Ultimos registro cada 15 minutos 93
Estación Fecha / Hora Temperatura Humedad Lluvia Velocidad Dirección Radiación Presion
93 Galvarino 07-05-2026 23:00 7,1 96,7 0 1 173 0,6 998,8
92 Galvarino 07-05-2026 22:45 7,1 96,7 0 1,5 164 0,6 998,6
91 Galvarino 07-05-2026 22:30 7,2 96,6 0,2 1 166 0,6 999,3
90 Galvarino 07-05-2026 22:15 7,2 96,5 0 2 168 0,6 999,1
89 Galvarino 07-05-2026 22:00 7,2 96,5 0 1,5 167 0,6 999,2
88 Galvarino 07-05-2026 21:45 7,2 96,3 0 1 168 0,6 999,7
87 Galvarino 07-05-2026 21:30 7,3 96,2 0 0,5 173 0,6 999,7
86 Galvarino 07-05-2026 21:15 7,3 96 0 1 168 0,6 1000
85 Galvarino 07-05-2026 21:00 7,4 95,8 0 0,5 167 0,6 1000,2
84 Galvarino 07-05-2026 20:45 7,4 96,1 0 0,5 168 0,6 1000,5
83 Galvarino 07-05-2026 20:30 7,4 96 0,2 1 164 0,6 1000,5
82 Galvarino 07-05-2026 20:15 7,5 95,9 0 1 164 0,6 1000,7
81 Galvarino 07-05-2026 20:00 7,5 95,5 0 1 166 0,6 1000,5
80 Galvarino 07-05-2026 19:45 7,6 95,3 0 0,5 167 0,6 1000,4
79 Galvarino 07-05-2026 19:30 7,6 95,7 0 0,5 161 0,6 1000,8
78 Galvarino 07-05-2026 19:15 7,7 95,6 0 1 159 0,6 1000,8
77 Galvarino 07-05-2026 19:00 7,7 95,5 0 0 142 0,6 1000,7
76 Galvarino 07-05-2026 18:45 7,7 95,3 0 0 140 0,6 1000,7
75 Galvarino 07-05-2026 18:30 7,8 95,3 0 0 140 0,6 1000,7
74 Galvarino 07-05-2026 18:15 7,8 95,4 0 0 140 0,6 1000,7
73 Galvarino 07-05-2026 18:00 7,9 95,5 0 0 140 0,6 1000,7
72 Galvarino 07-05-2026 17:45 8 94,9 0 0 140 3,1 1000,7
71 Galvarino 07-05-2026 17:30 8,1 93,9 0 0 140 6,9 1000,9
70 Galvarino 07-05-2026 17:15 8,2 93,4 0 0 140 5,6 1001,2
69 Galvarino 07-05-2026 17:00 8,3 92,9 0 0 140 9,4 1001,3
68 Galvarino 07-05-2026 16:45 8,4 92,3 0 0 136 14,4 1001,4
67 Galvarino 07-05-2026 16:30 8,4 91,6 0 0 132 45,6 1001,1
66 Galvarino 07-05-2026 16:15 8,4 90,7 0 0 59 63,1 1001,1
65 Galvarino 07-05-2026 16:00 8,4 90,4 0 0 352 71,9 1001
64 Galvarino 07-05-2026 15:45 8,4 90,1 0 0 354 75,6 1001,3
63 Galvarino 07-05-2026 15:30 8,2 91,4 0 0 354 139,4 1001,4
62 Galvarino 07-05-2026 15:15 7,8 92,6 0,2 0,5 4 119,4 1001,6
61 Galvarino 07-05-2026 15:00 8,1 89,8 0 0 56 63,1 1001,5
60 Galvarino 07-05-2026 14:45 8,8 83,3 0 1 63 95,6 1001,4
59 Galvarino 07-05-2026 14:30 9,6 77,2 0 1 90 154,4 1001,4
58 Galvarino 07-05-2026 14:15 9,5 78 0 0,5 90 119,4 1001,3
57 Galvarino 07-05-2026 14:00 9,6 74,5 0 0,5 101 145,6 1001,3
56 Galvarino 07-05-2026 13:45 9,8 76,9 0 0 139 121,9 1001,3
55 Galvarino 07-05-2026 13:30 9,6 75,8 0 0 135 139,4 1001,6
54 Galvarino 07-05-2026 13:15 9,4 75,7 0 0 34 188,1 1001,7
53 Galvarino 07-05-2026 13:00 9,1 77,8 0 0 38 215,6 1001,8
52 Galvarino 07-05-2026 12:45 8,7 81 0 0 44 204,4 1002,2
51 Galvarino 07-05-2026 12:30 9,2 75,1 0 0 14 68,1 1002,2
50 Galvarino 07-05-2026 12:15 9,2 72,2 0 0 358 118,1 1001,9
49 Galvarino 07-05-2026 12:00 9,4 71,2 0 0 14 134,4 1002,5
48 Galvarino 07-05-2026 11:45 9,5 73 0 0 29 189,4 1002,4
47 Galvarino 07-05-2026 11:30 9,1 73,3 0 0 46 110,6 1002,1
46 Galvarino 07-05-2026 11:15 9,5 71,2 0 0,5 28 198,1 1002,1
45 Galvarino 07-05-2026 11:00 9,8 72,9 0 0 329 179,4 1002,5
44 Galvarino 07-05-2026 10:45 8,8 74,4 0 0 338 133,1 1002,3
43 Galvarino 07-05-2026 10:30 8,9 75,3 0 0 100 160,6 1002,4
42 Galvarino 07-05-2026 10:15 8,8 82,7 0 0 105 173,1 1002,4
41 Galvarino 07-05-2026 10:00 8,6 85,5 0 0 67 174,4 1002,4
40 Galvarino 07-05-2026 09:45 8,3 83,3 0 0 63 138,1 1002,6
39 Galvarino 07-05-2026 09:30 8,1 87,7 0 0 101 120,6 1002,7
38 Galvarino 07-05-2026 09:15 7,7 92,1 0 0 90 180,6 1002,3
37 Galvarino 07-05-2026 09:00 6,4 93,6 0 0 77 43,1 1002,3
36 Galvarino 07-05-2026 08:45 6 94,7 0 0 79 31,9 1002,4
35 Galvarino 07-05-2026 08:30 5,6 94,3 0 0 77 24,4 1001,9
34 Galvarino 07-05-2026 08:15 5,4 95,8 0 0 77 25,6 1001,6
33 Galvarino 07-05-2026 08:00 4,8 95,8 0 0 49 13,1 1001,5
32 Galvarino 07-05-2026 07:45 5,1 95,4 0 0 14 4,4 1001,5
31 Galvarino 07-05-2026 07:30 5,1 95,2 0 0 14 0,6 1001,4
30 Galvarino 07-05-2026 07:15 5,5 94,5 0 0 14 0,6 1001,4
29 Galvarino 07-05-2026 07:00 5,5 93,5 0 0 14 0,6 1001,3
28 Galvarino 07-05-2026 06:45 6 92,5 0 0 14 0,6 1001,4
27 Galvarino 07-05-2026 06:30 6,3 92 0 0 4 0,6 1001,5
26 Galvarino 07-05-2026 06:15 6,7 91,4 0 1 354 0,6 1001,6
25 Galvarino 07-05-2026 06:00 7 91,9 0 1 1 0,6 1001,4
24 Galvarino 07-05-2026 05:45 6,7 94,5 0 0 42 0,6 1000,9
23 Galvarino 07-05-2026 05:30 6,9 93,9 0 0 28 0,6 1000,8
22 Galvarino 07-05-2026 05:15 7,2 93,1 0,2 1 13 0,6 1000,6
21 Galvarino 07-05-2026 05:00 7,3 93,4 0 1 357 0,6 1000,6
20 Galvarino 07-05-2026 04:45 7,4 94,2 0 0,5 357 0,6 1000,6
19 Galvarino 07-05-2026 04:30 7,4 95,4 0 0,5 20 0,6 1000,5
18 Galvarino 07-05-2026 04:15 7,4 95,6 0 0,5 22 0,6 1000,2
17 Galvarino 07-05-2026 04:00 7,4 95,5 0 0,5 22 0,6 1000,1
16 Galvarino 07-05-2026 03:45 7,5 95,6 0,2 1 22 0,6 1000,2
15 Galvarino 07-05-2026 03:30 7,7 95,7 0 0,5 25 0,6 1000,1
14 Galvarino 07-05-2026 03:15 7,8 95,3 0 0 21 0,6 999,8
13 Galvarino 07-05-2026 03:00 7,8 94,5 0 0,5 14 0,6 999,8
12 Galvarino 07-05-2026 02:45 7,9 94 0 0 24 0,6 999,7
11 Galvarino 07-05-2026 02:30 7,7 94,2 0 0 24 0,6 999,8
10 Galvarino 07-05-2026 02:15 7,8 93,6 0 0 24 0,6 999,8
9 Galvarino 07-05-2026 02:00 7,9 92,3 0 0 24 0,6 999,5
8 Galvarino 07-05-2026 01:45 8 91,1 0 0 15 0,6 999,4
7 Galvarino 07-05-2026 01:30 8,3 89,8 0 0 22 0,6 999,2
6 Galvarino 07-05-2026 01:15 8,3 89,7 0 0 25 0,6 999,1
5 Galvarino 07-05-2026 01:00 8,3 89,7 0 0 27 0,6 999,1
4 Galvarino 07-05-2026 00:45 8,4 88,8 0 0 28 0,6 998,9
3 Galvarino 07-05-2026 00:30 8,6 86,7 0 0 20 0,6 998,7
2 Galvarino 07-05-2026 00:15 8,5 85,9 0 0 21 0,6 998,6
1 Galvarino 07-05-2026 00:00 7,9 87,5 0 0 45 0,6 998,5